Погода в Рыбинске

Погода в Рыбинске : погода сейчас, прогноз погоды и архив. Всё, что Вы хотите узнать о погоде в Рыбинске!

Хотите узнать прогноз погоды в Рыбинске? Тогда Вам сюда: Погода в Рыбинске

Поиск расширенной информации на нашем сайте:

Другие новости

Новости СМИ2

Главная страница сайта

Новости сайта

03.07.2017

Напоминаем, что на нашем специализированном сайте Метеоцентр.Азия вы можете получить высокодетализированные автоматические прогнозы погоды по пунктам России, СНГ и мира в авиационном формате (включающие направление и скорость ветра, видимость, явления погоды, количество и форму облачности, нижнюю и верхнюю границу облачности).


Погода в Рыбинске - сегодня

Время (UTC), дата Ветер
(°,м/с) 
Видим.   Явления Облачность Т
(°С)
Тd
(°С)
f(%) Тe
(°С)
Pmin
(гПа)
dP
(гПа)
Po
(мм)
O2
(г/м3)
Тmin Tmax R s Состояние
почвы
21 13.10.18 170 (Ю) 10 км  в посл. час туман  10/10 2000 м 
[Ac trans]
+4.5 +4.1 97 +5  1024.5  -0.5  759  300           
03 14.10.18 тихо ()   10 км    10/10 2000 м 
[As trans]
+8.7 +8.1 96 +9  1024.2  -0.1  758  295  +3.3    0.0    влажная 
06 14.10.18 270 (З) 0500 м  слаб. морось{туман}  ?/?  
+9.9 +9.1 95 +11  1024.4  0.2  759  293           
09 14.10.18 290 (З) 10 км  {морось, туман}  10/10 300 м 
[Sc]
+11.8 +10.2 90 +14  1024.2  -0.1  759  291           
18 14.10.18 290 (З) 10 км    ясно 
+13.6 +9.2 75 +15  1022.8  0.8  758  289           
21 14.10.18 290 (З) 10 км    ясно 
+12.7 +8.8 77 +14  1023.4  0.6  758  290           
00 15.10.18 290 (З) 10 км    ясно 
+12.6 +8.9 78 +13  1023.8  0.4  758  291           
03 15.10.18 тихо ()   10 км    ясно 
+8.1 +7 93 +8  1024.6  0.5  759  296  +7.6        влажная 
06 15.10.18 260 (З) 7000 м  дымка  ясно 
+10.2 +8.5 89 +10  1024.9  0.5  759  293           
09 15.10.18 230 (ЮЗ) 15000 м    ясно 
+15.7 +10 69 +18  1025  0.3  759  288           
12 15.10.18 270 (З) 15000 м    ясно 
+17.5 +9.4 59 +19  1024.6  -0.4  759  286           
15 15.10.18 тихо ()   13000 м    ясно 
+11 +8.2 83 +11  1023.9  -0.9  758  292    +17.8       
18 15.10.18 250 (З) 10 км    ясно 
+9.8 +7.2 84 +11  1023.7  -0.3  758  294           
21 15.10.18 290 (З) 10 км    ясно 
+8.8 +6.6 86 +10  1023.8  0.1  758  295           
00 16.10.18 260 (З) 10 км    ясно 
+7.4 +5.7 89 +8  1023.6  -0.3  758  296           
03 16.10.18 130 (ЮВ) 10 км    3/0 верхняя 
[Ci fib]
+3 +2.3 95 +4  1023.4  -0.4  758  302  +3        влажная 
06 16.10.18 270 (З) 12000 м    6/0 верхняя 
[Ci fib]
+8 +5.5 84 +9  1023.1  758  296  +2.5         
09 16.10.18 240 (ЮЗ) 14000 м    10/0 верхняя 
[Ci fib]
+12.9 +5.6 61 +14  1022.1  -0.8  757  290           
12 16.10.18 250 (З) 16000 м    8/0 верхняя 
[Ci sp]
+16.8 +4.1 43 +18  1020.4  -1.5  756  286           
18 16.10.18 260 (З) 10 км    6/6 2000 м средняя 
[Ac trans]
+13.2 +5.1 58 +13  1019.1  -0.7  755  289           
21 16.10.18 280 (З) 10 км    8/8 2000 м средняя 
[Ac trans]
+11.7 +4.7 62 +12  1019.6  0.5  755  291           
00 17.10.18 290 (З) 10 км    4/0 средняя 
[Ac trans]
+10.1 +5.2 72 +10  1020.9  1.1  756  293           
03 17.10.18 300 (СЗ) 10 км    4/4 2000 м средняя 
[Ac trans]
+9.7 +5.9 77 +11  1022.2  1.3  757  294  +9.7        влажная 
06 17.10.18 320 (СЗ) 10 км    9/9 2000 м средняя 
[Ac trans]
+10 +7.1 82 +11  1024  1.9  758  294  +9.1         
09 17.10.18 270 (З) 14000 м    4/4 2000 м средняя 
[Ac cast]
+12.4 +6.9 69 +14  1025.4  0.4  759  292           
Время (UTC), дата Ветер
(°,м/с) 
Видим.   Явления Облачность Т
(°С)
Тd
(°С)
f(%) Тe
(°С)
Pmin
(гПа)
dP
(гПа)
Po
(мм)
O2
(г/м3)
Тmin Tmax R s Состояние
почвы

Для получения пояснительной информации подведите курсор к названию столбца.

ПОГОДА в Рыбинске - архив

Всё, что Вы хотите узнать о погоде в Рыбинске - удобно и подробно!

Выберите нужную дату (начиная с 1 января 2015* года) и нажмите кнопку "Найти".
Будут отображены архивные сводки погоды по пункту Рыбинск, начиная с указанной даты.


Отображать данные в формате CSV (для использования в таблицах Excel)


Внимание! Наш архив погоды предназначен исключительно для личного некоммерческого использования в познавательных целях. Если Вам необходимы официальные справки о состоянии погоды (для производственных, юридических, коммерческих и т.п. целей), обращайтесь в органы Росгидромета.

*Примечание: данная дата относится к архиву по метеостанциям СССР (Россия, СНГ, Балтия).
Архив по метеостанциям Зарубежной Европы и Азии (кроме Китая) хранится 10 дней, по другим регионам земного шара (Китай, Африка, Америка, Австралия, Океания) - 1 день.

Рыбинск - район местоположения метеостанции


Название, широта, долгота, высота метеостанции:
Рыбинск 58.1°ш. 38.7°д. 105 м над ур. моря [Российская Федерация]

Дополнительная информация

В oтличие oт бoльшинства пoгoдных сайтoв мы публикуем пoдрoбную метеoинфoрмацию в детальнoм прoфессиoнальнoм фoрмате.

Характеристики температуры и влажнoсти вoздуха измеряются на высoте 2 м в тени вдали oт зданий и деревьев.
Скoрoсть ветра измеряется на высoте 10 м (на урoвне рoста челoвека скoрoсть ветра ниже в 1.5-2 раза). Если метеoстанция нахoдится в гoрoде или в лесу, тo скoрoсть ветра занижена на 2-4 м/с пo сравнению с oткрытым местoм. Скoрoсть ветра над акватoриями крупных рек и oзёр, а также на вершинах хoлмoв на 2-5 м/с выше, чем в oбычных услoвиях.
Атмoсфернoе давление в разных тoчках местнoсти мoжет значительнo oтличаться oт давления на метеoстанции, в зависимoсти oт услoвий рельефа (при пoдъёме на 10 м давление пoнижается примернo на 1 мм рт.ст.).